User: anonymous   Login
Location: Alfortville
(48.8058°N, 2.4204°E)
Time: 09:02:43
(UTC+00:00)
Language:

Cosmos 2228 - Orbit

View from above orbital plane
View from above orbital plane
View from above satellite
View from above satellite

Ground track
Ground track

The orbit data is extracted from the following two-line orbital elements,

1 22286U 92094A   22020.08783748  .00000642  00000-0  66404-4 0  9991
2 22286  82.5184 230.9000 0019972 311.8963  48.0551 14.88428464572021
Epoch (UTC): 20 January 2022 02:06:29
Eccentricity: 0.0019972
inclination: 82.5184°
perigee height: 589 km
apogee height: 617 km
right ascension of ascending node: 230.9000°
argument of perigee: 311.8963°
revolutions per day: 14.88428464
mean anomaly at epoch: 48.0551°
orbit number at epoch: 57202

The dashed part of the orbit path shows where the satellite is in the earth's shadow,  

DLR